Location: Laan Hart van Zuid
(52.2563°N, 6.7904°E)
Time: 22:34:37
(UTC+02:00)

ISS - Visible Passes

Search period start: 15 July 2024 00:00
Search period end: 25 July 2024 00:00
Orbit: 410 x 424 km, 51.6° (Epoch: 15 July)

Date Brightness Start Highest point End Pass type
(mag) Time Alt. Az. Time Alt. Az. Time Alt. Az.
15 Jul -3.9 00:38:53 10° W 00:42:11 72° S 00:44:31 18° ESE visible
15 Jul -2.2 02:15:46 10° W 02:17:21 21° WSW 02:17:21 21° WSW visible
15 Jul -3.9 23:50:36 10° W 23:53:56 80° S 23:57:15 10° E visible
16 Jul -3.1 01:27:23 10° W 01:30:09 36° SW 01:30:09 36° SW visible
16 Jul -3.9 23:02:16 10° W 23:05:36 82° S 23:08:55 10° E visible
17 Jul -3.6 00:39:00 10° W 00:42:14 49° SSW 00:43:02 39° SSE visible
17 Jul -3.8 23:50:34 10° W 23:53:52 62° SSW 23:55:57 20° ESE visible
18 Jul -1.7 01:27:37 10° W 01:28:48 16° WSW 01:28:48 16° WSW visible
18 Jul -3.8 23:02:06 10° W 23:05:25 73° S 23:08:43 10° ESE visible
19 Jul -2.7 00:38:57 10° W 00:41:43 29° SW 00:41:43 29° SW visible
19 Jul -3.2 23:50:18 10° W 23:53:26 39° SSW 23:54:36 28° SSE visible
20 Jul -3.5 23:01:38 10° W 23:04:53 51° SSW 23:07:29 15° SE visible
21 Jul -1.6 00:39:01 10° WSW 00:40:21 15° SW 00:40:21 15° SW visible
21 Jul -2.3 23:49:56 10° W 23:52:35 22° SSW 23:53:12 21° SSW visible
22 Jul -2.7 23:00:59 10° W 23:03:57 30° SSW 23:06:02 16° SSE visible
23 Jul -1.4 23:50:11 10° WSW 23:51:17 11° SW 23:51:41 11° SW visible
24 Jul -1.7 23:00:24 10° WSW 23:02:37 17° SW 23:04:28 11° S visible
